Change the Weather History Date:

Wednesday, November 20, 2013

  Actual Average (KHOU) Record (KHOU)
Temperature  
Mean Temperature 62 °F 61 °F  
Max Temperature 72 °F 71 °F 84 °F (1977)
Min Temperature 52 °F 51 °F 27 °F (1969)
Degree Days  
Heating Degree Days 3 6  
Month to date heating degree days 81  
Since 1 July heating degree days 111  
Growing Degree Days 12 (Base 50)    
Moisture  
Dew Point 56 °F    
Average Humidity 77    
Maximum Humidity 99    
Minimum Humidity 64    
Precipitation  
Precipitation 0.00 in 0.13 in 1.85 in (1907)
Month to date precipitation 2.94  
Year to date precipitation 44.63  
Sea Level Pressure  
Sea Level Pressure 30.00 in    
Wind  
Wind Speed 5 mph (East)    
Max Wind Speed 13 mph    
Max Gust Speed 17 mph    
Visibility 10 miles    
Events Rain    
T = Trace of Precipitation, MM = Missing Value Source: NWS Daily Summary

Daily Weather History Graph

Daily Weather History Graph

Search for Another Location

Airport or City:

Trip Planner

Search our weather history database for the weather conditions in past years. The results will help you decide how hot, cold, wet, or windy it might be!

Date:

Astronomy

Nov. 20, 2013 Rise Set
Actual Time 6:50 AM CST 5:24 PM CST
Civil Twilight 6:24 AM CST 5:50 PM CST
Nautical Twilight 5:56 AM CST 6:18 PM CST
Astronomical Twilight 5:27 AM CST 6:47 PM CST
Moon 8:08 PM CST (11/20) 9:15 AM CST (11/20)
Length of Visible Light 11h 25m
Length of Day
10h 34m
Waning Gibbous, 91% of the Moon is Illuminated
Nov 20
Waning Gibbous
Nov 25
Last Quarter
Dec 2
New
Dec 9
First Quarter
Dec 17
Full

Hourly Weather History & Observations

Time (CST) Temp. Dew Point Humidity Pressure Visibility Wind Dir Wind Speed Gust Speed Precip Events Conditions
12:15 AM 53.6 °F 43.7 °F 69% 30.04 in 10.0 mi NE 3.5 mph - N/A   Clear
12:35 AM 53.4 °F 43.3 °F 69% 30.04 in 10.0 mi NE 4.6 mph - N/A   Clear
12:55 AM 53.1 °F 43.3 °F 70% 30.04 in 10.0 mi NE 3.5 mph - N/A   Clear
1:15 AM 52.3 °F 43.7 °F 72% 30.03 in 10.0 mi Calm Calm - N/A   Clear
1:35 AM 52.2 °F 43.9 °F 73% 30.03 in 10.0 mi Calm Calm - N/A   Scattered Clouds
1:55 AM 53.1 °F 44.8 °F 73% 30.03 in 10.0 mi NE 3.5 mph - N/A   Overcast
2:15 AM 54.0 °F 45.3 °F 73% 30.03 in 10.0 mi ENE 3.5 mph - N/A   Overcast
2:35 AM 54.7 °F 44.8 °F 69% 30.03 in 10.0 mi East 3.5 mph - N/A   Overcast
2:55 AM 54.7 °F 45.1 °F 70% 30.03 in 10.0 mi ENE 3.5 mph - N/A   Overcast
3:15 AM 54.9 °F 45.3 °F 70% 30.03 in 10.0 mi NE 3.5 mph - N/A   Overcast
3:35 AM 55.4 °F 45.9 °F 70% 30.03 in 10.0 mi NE 3.5 mph - N/A   Overcast
3:55 AM 55.6 °F 46.2 °F 71% 30.03 in 10.0 mi Calm Calm - N/A   Overcast
4:15 AM 56.3 °F 46.4 °F 69% 30.03 in 10.0 mi Calm Calm - N/A   Overcast
4:35 AM 56.5 °F 46.0 °F 68% 30.03 in 10.0 mi NE 5.8 mph - N/A   Overcast
4:55 AM 56.3 °F 46.0 °F 68% 30.03 in 10.0 mi NNE 4.6 mph - N/A   Overcast
5:15 AM 55.8 °F 45.7 °F 69% 30.03 in 10.0 mi ENE 6.9 mph - N/A   Overcast
5:35 AM 55.2 °F 45.9 °F 71% 30.03 in 10.0 mi NE 4.6 mph - N/A   Overcast
5:55 AM 55.4 °F 45.9 °F 70% 30.02 in 10.0 mi NE 4.6 mph - N/A   Overcast
6:15 AM 55.4 °F 45.9 °F 70% 30.03 in 10.0 mi NE 3.5 mph - N/A   Overcast
6:35 AM 55.6 °F 46.4 °F 71% 30.03 in 10.0 mi ENE 5.8 mph - N/A   Overcast
6:55 AM 54.7 °F 46.4 °F 74% 30.03 in 10.0 mi ENE 5.8 mph - N/A   Mostly Cloudy
7:15 AM 55.4 °F 47.5 °F 75% 30.03 in 10.0 mi NE 4.6 mph - N/A   Mostly Cloudy
7:35 AM 56.5 °F 48.7 °F 75% 30.03 in 10.0 mi ENE 6.9 mph - N/A   Overcast
7:55 AM 57.9 °F 50.0 °F 75% 30.03 in 10.0 mi East 5.8 mph - N/A   Overcast
8:15 AM 60.1 °F 51.6 °F 74% 30.03 in 10.0 mi East 5.8 mph - N/A   Overcast
8:35 AM 60.3 °F 51.8 °F 74% 30.04 in 10.0 mi East 4.6 mph - N/A   Overcast
8:55 AM 61.3 °F 52.7 °F 73% 30.04 in 10.0 mi ENE 3.5 mph - N/A   Overcast
9:15 AM 63.9 °F 54.3 °F 71% 30.04 in 10.0 mi East 3.5 mph - N/A   Overcast
9:35 AM 65.7 °F 54.9 °F 68% 30.04 in 10.0 mi East 6.9 mph - N/A   Overcast
9:55 AM 66.7 °F 55.8 °F 68% 30.04 in 10.0 mi East 6.9 mph - N/A   Overcast
10:15 AM 67.5 °F 56.7 °F 68% 30.04 in 10.0 mi East 5.8 mph - N/A   Overcast
10:35 AM 68.4 °F 56.8 °F 67% 30.04 in 10.0 mi East 8.1 mph - N/A   Overcast
10:55 AM 69.1 °F 57.4 °F 66% 30.04 in 10.0 mi East 8.1 mph - N/A   Overcast
11:15 AM 70.7 °F 58.1 °F 64% 30.03 in 10.0 mi East 8.1 mph - N/A   Overcast
11:35 AM 71.2 °F 58.6 °F 64% 30.01 in 10.0 mi East 11.5 mph 16.1 mph N/A   Overcast
11:55 AM 71.4 °F 59.0 °F 65% 30.01 in 10.0 mi East 10.4 mph 16.1 mph N/A   Overcast
12:15 PM 70.9 °F 59.7 °F 68% 30.00 in 10.0 mi ESE 9.2 mph - N/A   Overcast
12:35 PM 70.7 °F 59.9 °F 69% 29.99 in 10.0 mi East 9.2 mph - N/A   Overcast
12:55 PM 70.9 °F 60.6 °F 70% 29.98 in 10.0 mi East 10.4 mph - N/A   Overcast
1:15 PM 71.6 °F 61.0 °F 69% 29.98 in 10.0 mi ESE 10.4 mph - N/A   Overcast
1:35 PM 71.8 °F 61.0 °F 69% 29.96 in 10.0 mi East 9.2 mph - N/A   Overcast
1:55 PM 72.0 °F 61.3 °F 69% 29.96 in 10.0 mi East 9.2 mph - N/A   Overcast
2:15 PM 71.8 °F 61.5 °F 70% 29.95 in 10.0 mi East 10.4 mph - N/A   Overcast
2:35 PM 72.0 °F 61.9 °F 70% 29.95 in 10.0 mi East 12.7 mph 17.3 mph N/A   Overcast
2:55 PM 72.9 °F 62.2 °F 69% 29.94 in 10.0 mi ESE 12.7 mph 17.3 mph N/A   Overcast
3:15 PM 72.5 °F 62.1 °F 70% 29.94 in 10.0 mi ESE 9.2 mph - N/A   Overcast
3:35 PM 72.5 °F 62.2 °F 70% 29.94 in 10.0 mi ESE 10.4 mph 17.3 mph N/A   Overcast
3:55 PM 72.0 °F 62.4 °F 72% 29.94 in 10.0 mi East 6.9 mph - N/A   Overcast
4:15 PM 71.4 °F 62.6 °F 74% 29.94 in 10.0 mi ESE 8.1 mph - N/A   Overcast
4:35 PM 71.1 °F 62.6 °F 75% 29.95 in 10.0 mi East 8.1 mph - N/A   Overcast
4:55 PM 70.7 °F 62.6 °F 75% 29.95 in 10.0 mi East 8.1 mph - N/A   Overcast
5:15 PM 69.4 °F 62.4 °F 78% 29.96 in 10.0 mi East 6.9 mph - N/A   Overcast
5:35 PM 68.9 °F 62.2 °F 79% 29.96 in 10.0 mi East 9.2 mph - N/A   Overcast
5:55 PM 68.2 °F 62.6 °F 82% 29.96 in 10.0 mi ENE 8.1 mph - N/A   Overcast
6:15 PM 67.1 °F 63.1 °F 87% 29.97 in 10.0 mi East 6.9 mph - N/A   Light Drizzle
6:35 PM 66.7 °F 63.7 °F 90% 29.97 in 10.0 mi East 9.2 mph - N/A   Overcast
6:55 PM 66.4 °F 63.5 °F 90% 29.97 in 10.0 mi East 8.1 mph - N/A   Overcast
7:15 PM 66.4 °F 63.7 °F 91% 29.97 in 10.0 mi East 9.2 mph - N/A   Overcast
7:35 PM 66.4 °F 63.9 °F 92% 29.98 in 10.0 mi East 9.2 mph - N/A   Overcast
7:55 PM 66.2 °F 63.9 °F 92% 29.97 in 10.0 mi East 10.4 mph - N/A   Overcast
8:15 PM 66.2 °F 64.4 °F 94% 29.98 in 10.0 mi East 8.1 mph - N/A   Overcast
8:35 PM 66.2 °F 64.6 °F 94% 29.99 in 10.0 mi East 8.1 mph - N/A   Overcast
8:55 PM 66.6 °F 65.1 °F 95% 30.00 in 10.0 mi East 8.1 mph - N/A   Overcast
9:15 PM 66.7 °F 64.9 °F 94% 29.99 in 10.0 mi East 9.2 mph - N/A   Overcast
9:35 PM 67.1 °F 65.3 °F 94% 30.00 in 10.0 mi East 6.9 mph - N/A   Overcast
9:55 PM 67.1 °F 65.5 °F 95% 30.00 in 10.0 mi East 9.2 mph - N/A Rain Light Rain
10:15 PM 67.1 °F 66.2 °F 97% 29.99 in 7.0 mi East 5.8 mph - N/A Rain Rain
10:35 PM 67.5 °F 66.7 °F 98% 29.99 in 7.0 mi East 6.9 mph - N/A   Drizzle
10:55 PM 67.6 °F 67.1 °F 98% 29.99 in 7.0 mi East 5.8 mph - N/A Rain Light Rain
11:15 PM 68.0 °F 67.6 °F 99% 29.98 in 10.0 mi East 5.8 mph - N/A   Overcast
11:35 PM 68.9 °F 68.4 °F 98% 29.98 in 10.0 mi East 8.1 mph - N/A   Overcast
11:55 PM 69.4 °F 68.9 °F 98% 29.98 in 10.0 mi East 6.9 mph - N/A   Overcast